This is the latest recevied weather packets stored in our database for station/object G4MDP-13. If no packets are shown the sender has not sent any weather packets the latest 10 day(s).
| Time | Temp. | Humidity | Pressure | Rain* | Wind** | Luminosity | Snow |
|---|---|---|---|---|---|---|---|
| 1778012358 | 13.89° C | 61% | 1005.4 hPa | 0 mm | - | - | - |
| 1778012357 | 13.89° C | 61% | 1005.4 hPa | 0 mm | - | - | - |
| 1778011517 | 13.89° C | 66% | 1005.5 hPa | 0 mm | - | - | - |
| 1778011460 | 13.89° C | 66% | 1005.4 hPa | 0 mm | - | - | - |
| 1778011458 | 13.89° C | 66% | 1005.4 hPa | 0 mm | - | - | - |
| 1778010558 | 13.89° C | 71% | 1005.2 hPa | 0 mm | - | - | - |
| 1778010557 | 13.89° C | 71% | 1005.2 hPa | 0 mm | - | - | - |
| 1778009717 | 14.44° C | 73% | 1005.1 hPa | 0 mm | - | - | - |
| 1778009660 | 14.44° C | 73% | 1004.9 hPa | 0 mm | - | - | - |
| 1778009658 | 14.44° C | 73% | 1004.9 hPa | 0 mm | - | - | - |
| 1778008758 | 14.44° C | 73% | 1005.2 hPa | 0 mm | - | - | - |
| 1778008757 | 14.44° C | 73% | 1005.2 hPa | 0 mm | - | - | - |
| 1778007917 | 15° C | 72% | 1005 hPa | 0 mm | - | - | - |
| 1778007861 | 15° C | 72% | 1004.9 hPa | 0 mm | - | - | - |
| 1778007858 | 15° C | 72% | 1004.9 hPa | 0 mm | - | - | - |
| 1778006958 | 15.56° C | 67% | 1004.9 hPa | 0 mm | - | - | - |
| 1778006957 | 15.56° C | 67% | 1004.9 hPa | 0 mm | - | - | - |
| 1778006117 | 15.56° C | 49% | 1004.8 hPa | 0 mm | - | - | - |
| 1778006061 | 15.56° C | 49% | 1004.6 hPa | 0 mm | - | - | - |
| 1778006058 | 15.56° C | 49% | 1004.6 hPa | 0 mm | - | - | - |
| 1778005158 | 15.56° C | 48% | 1004.6 hPa | 0 mm | - | - | - |
| 1778005157 | 15.56° C | 48% | 1004.6 hPa | 0 mm | - | - | - |
| 1778004317 | 15.56° C | 55% | 1004.7 hPa | 0 mm | - | - | - |
| 1778004261 | 15.56° C | 55% | 1004.8 hPa | 0 mm | - | - | - |
| 1778004258 | 15.56° C | 55% | 1004.8 hPa | 0 mm | - | - | - |
* Rain latest hour (hover to see other rain measurements)
** Current wind speed in m/s (hover to see current wind gust speed)